Карточка аэропорта UATT

Внимание!
Информация на этой странице в стадии наполнения.
Если вы не увидели какой-то информации, или заметили неточность - пожалуйста сообщите нам!
Спасибо!
Команда RU-STAFF
Название аэропортаАктобе
Название аэропорта (англ.)Aktobe
Превышение738 ft. (224.9 m.)
Координаты50°14.748', 57°12.402'
Высота перехода10000ft
Эшелон переходаFL120, QNH<733:FL130
Коды ответчика3440-3447, 3540-3547
Зона ОрВДАктобе РПИ (UATT)
Данные METARUATT 270530Z 28006MPS CAVOK 11/03 Q1017 NOSIG RMK QFE743/0991
Проноз погоды (TAF)UATT 270502Z 2706/2806 28007MPS 9999 BKN050 TX15/2712Z TN04/2802Z TEMPO 2706/2715 33012MPS SCT040CB BECMG 2716/2718 VRB02MPS BKN033 TEMPO 2718/2804 1000 BR
NOTAMshow/hide NOTAM
AWOS   TABLE

Информация о ВПП

ВПП Длина ВПП (м.) Покрытие Курс ВПП Частота ILS
133202Бетон135111.7
313202Бетон315111.7

Диспетчерские позиции




Спутниковое изображение